| time (UTC) | temp C | wind direction | speed KPH | gust KPH | rain 1hr cm | rain 24hr cm | rain mn cm | humidity % | barometer mb |
| 20260504211600 | 21 | 170 | 8.0 | 19.3 | 0.00 | 0.00 | 0.00 | 37 | 1004.5 |
| 20260504210059 | 21 | 183 | 6.4 | 19.3 | 0.00 | 0.00 | 0.00 | 36 | 1004.6 |
| 20260504204555 | 21 | 180 | 3.2 | 25.7 | 0.00 | 0.00 | 0.00 | 38 | 1004.8 |
| 20260504203106 | 20 | 177 | 11.3 | 35.4 | 0.00 | 0.00 | 0.00 | 38 | 1004.9 |
| 20260504201556 | 20 | 210 | 6.4 | 22.5 | 0.00 | 0.00 | 0.00 | 40 | 1005.1 |
| 20260504200054 | 20 | 156 | 6.4 | 24.1 | 0.00 | 0.00 | 0.00 | 38 | 1005.1 |
| 20260504194550 | 21 | 148 | 9.7 | 25.7 | 0.00 | 0.00 | 0.00 | 38 | 1005.6 |
| 20260504193048 | 21 | 198 | 6.4 | 24.1 | 0.00 | 0.00 | 0.00 | 39 | 1005.4 |
| 20260504191554 | 20 | 166 | 4.8 | 22.5 | 0.00 | 0.00 | 0.00 | 43 | 1005.6 |
| 20260504190046 | 20 | 157 | 6.4 | 33.8 | 0.00 | 0.00 | 0.00 | 41 | 1005.7 |
| 20260504184538 | 19 | 178 | 6.4 | 22.5 | 0.00 | 0.00 | 0.00 | 43 | 1005.8 |
| 20260504183037 | 18 | 209 | 4.8 | 24.1 | 0.00 | 0.00 | 0.00 | 43 | 1005.9 |
| 20260504181542 | 18 | 133 | 1.6 | 17.7 | 0.00 | 0.00 | 0.00 | 44 | 1006.1 |
| 20260504180032 | 18 | 146 | 6.4 | 20.9 | 0.00 | 0.00 | 0.00 | 46 | 1006.0 |
| 20260504174530 | 17 | 136 | 4.8 | 24.1 | 0.00 | 0.00 | 0.00 | 45 | 1006.1 |
| 20260504173026 | 17 | 156 | 4.8 | 32.2 | 0.00 | 0.00 | 0.00 | 47 | 1006.3 |
| 20260504171524 | 16 | 197 | 8.0 | 25.7 | 0.00 | 0.00 | 0.00 | 45 | 1006.6 |
| 20260504081514 | 7 | 94 | 0.0 | 3.2 | 0.00 | 0.00 | 0.00 | 79 | 1008.7 |
| 20260504044548 | 3 | 314 | 0.0 | 3.2 | 0.00 | 0.00 | 0.00 | 83 | 1009.4 |
| 20260504043042 | 2 | 314 | 0.0 | 0.0 | 0.00 | 0.00 | 0.00 | 83 | 1009.6 |
| 20260504041539 | 2 | 314 | 0.0 | 1.6 | 0.00 | 0.00 | 0.00 | 83 | 1009.3 |
| 20260504040049 | 2 | 313 | 0.0 | 1.6 | 0.00 | 0.00 | 0.00 | 83 | 1009.4 |
| 20260504034550 | 2 | 284 | 0.0 | 1.6 | 0.00 | 0.00 | 0.00 | 84 | 1009.4 |
| 20260504033037 | 2 | 284 | 0.0 | 0.0 | 0.00 | 0.00 | 0.00 | 83 | 1009.4 |
| 20260504031536 | 1 | 284 | 0.0 | 0.0 | 0.00 | 0.00 | 0.00 | 83 | 1009.5 |
| 20260504030039 | 1 | 284 | 0.0 | 0.0 | 0.00 | 0.00 | 0.00 | 82 | 1009.4 |
| 20260504024536 | 1 | 284 | 0.0 | 1.6 | 0.00 | 0.00 | 0.00 | 81 | 1009.4 |
| 20260504023035 | 1 | 284 | 0.0 | 0.0 | 0.00 | 0.00 | 0.00 | 78 | 1009.5 |
| 20260504021534 | 2 | 284 | 0.0 | 1.6 | 0.00 | 0.00 | 0.00 | 76 | 1009.5 |
| 20260504020035 | 2 | 284 | 0.0 | 0.0 | 0.00 | 0.00 | 0.00 | 74 | 1009.6 |
| 20260504014535 | 2 | 284 | 0.0 | 0.0 | 0.00 | 0.00 | 0.00 | 72 | 1009.6 |
| 20260504013045 | 3 | 284 | 0.0 | 1.6 | 0.00 | 0.00 | 0.00 | 70 | 1009.5 |
| 20260504011533 | 4 | 284 | 0.0 | 1.6 | 0.00 | 0.00 | 0.00 | 68 | 1009.4 |
| 20260504010032 | 5 | 284 | 0.0 | 0.0 | 0.00 | 0.00 | 0.00 | 64 | 1009.1 |
| 20260504004532 | 6 | 284 | 0.0 | 0.0 | 0.00 | 0.00 | 0.00 | 61 | 1008.8 |
| 20260504003033 | 7 | 284 | 0.0 | 0.0 | 0.00 | 0.00 | 0.00 | 56 | 1008.7 |
| 20260504001531 | 7 | 284 | 0.0 | 0.0 | 0.00 | 0.00 | 0.00 | 54 | 1008.5 |
| 20260504000031 | 8 | 284 | 0.0 | 0.0 | 0.00 | 0.00 | 0.00 | 49 | 1008.3 |
| 20260503234531 | 9 | 284 | 0.0 | 1.6 | 0.00 | 0.00 | 0.00 | 46 | 1008.1 |
| 20260503233036 | 9 | 272 | 0.0 | 6.4 | 0.00 | 0.00 | 0.00 | 44 | 1008.0 |
| 20260503231529 | 10 | 229 | 0.0 | 6.4 | 0.00 | 0.00 | 0.00 | 42 | 1007.9 |
| 20260503230029 | 10 | 244 | 0.0 | 11.3 | 0.00 | 0.00 | 0.00 | 43 | 1007.8 |
| 20260503224528 | 10 | 164 | 0.0 | 9.7 | 0.00 | 0.00 | 0.00 | 44 | 1007.8 |
| 20260503223028 | 10 | 217 | 3.2 | 12.9 | 0.00 | 0.00 | 0.00 | 43 | 1007.9 |
| 20260503221527 | 10 | 257 | 1.6 | 9.7 | 0.00 | 0.00 | 0.00 | 45 | 1007.9 |
| 20260503220027 | 10 | 305 | 1.6 | 9.7 | 0.00 | 0.00 | 0.00 | 45 | 1008.0 |
| 20260503214525 | 10 | 258 | 0.0 | 9.7 | 0.00 | 0.00 | 0.00 | 45 | 1007.8 |
| 20260503213025 | 10 | 283 | 0.0 | 6.4 | 0.00 | 0.00 | 0.00 | 47 | 1007.9 |